Погода в Киржеманах

Россия / Республика Мордовия     54°25′23″N   45°50′44″E
темп.,
°C
ветер,
м/с
пор.,
м/с
влажн.,
%
обл.,
%
осадки,
мм/ч
давл.,
гПа
погр.,
м
8 марта, пн
пн800:00−5ююз91693100 0.4 994792
03:00−4зюз101588100 1.2 994854
06:00−8зюз51393100 0.1 996373
09:00−8зюз7129197 0.2 999512
12:00−6юз699081 0.0 1000641
15:00−4зюз489290 0.4 999729
18:00−6з61284100 1.0 1000746
21:00−9зсз51193100 1.2 1004344
9 марта, вт
вт900:00−14з349619 0.0 100662
03:00−16зюз349829 0.0 100847
06:00−17зюз239974 0.0 100932
09:00−14з249786 0.1 1011157
12:00−12зсз2391100 0.0 1010315
15:00−10сз3590100 0.1 1011547
18:00−14ссз3696100 0.1 1012171
21:00−16сз479796 0.3 1013178
10 марта, ср
ср1000:00−17сз479889 0.1 1014165
03:00−18сз489895 0.1 1016238
06:00−21ссз5898100 0.1 1018265
09:00−21ссз5896100 0.2 1019385
12:00−20ссз5894100 0.1 1020506
15:00−20ссз6891100 0.1 1022532
18:00−23сз4797100 0.0 1023132
21:00−24сз479999 0.0 1025117
11 марта, чт
чт1100:00−26зсз3310083 0.0 102542
03:00−25зсз3410088 0.1 102770
06:00−26зсз3510099 0.0 102775
09:00−22зсз589896 0.1 1027228
12:00−16зсз699394 0.0 1027342
15:00−12зсз699297 0.1 1026492
18:00−13зсз41096100 0.1 1027259
21:00−16сз469995 0.1 1028102
12 марта, пт
пт1200:00−17зсз339873 0.0 103034
03:00−18зсз239844 0.0 103020
06:00−19з23980 0.0 103220
09:00−16зюз23940 0.0 1032129
12:00−12зюз35913 0.0 1032248
15:00−9юз46901 0.0 1031337
18:00−13ююз47940 0.0 1030122
21:00−15ююз47870 0.0 1030116